Regional Weather Roundup
Issued by NWS

Home | Current Version | Previous Version | Text Only | Print | Product List | Glossary On
Versions: 1 2 3 4 5 6 7 8 9 10 11 12 13 14 15 16 17 18 19 20 21 22 23 24 25 26 27 28 29 30 31 32 33 34 35 36 37 38 39 40 41 42 43 44 45 46 47 48 49 50
000
ASUS46 KLOX 221012
RWRCA

SOUTHERN CALIFORNIA WEATHER ROUNDUP
NATIONAL WEATHER SERVICE OXNARD CALIFORNIA
300 AM PDT MON SEP 22 2014

NOTE: "FAIR" INDICATES FEW OR NO CLOUDS BELOW 12,000 FEET WITH NO
SIGNIFICANT WEATHER AND/OR OBSTRUCTIONS TO VISIBILITY.

  -  STATIONS PRECEEDED BY AN ASTERISK (*) ARE NOT NWS OR FAA
     STATIONS AND ARE NOT SUBJECT TO NWS AND FAA QUALITY CONTROL.

CAZ041-042-087-221100-
LA AND ORANGE COUNTY COASTAL AREAS


CITY           SKY/WX    TMP DP  RH WIND       PRES   REMARKS
L.A. DOWNTOWN  CLEAR     66  61  84 CALM      29.96S
L.A. AIRPORT   PTCLDY    67  63  87 CALM      29.96F
LONG BEACH     CLEAR     64  61  90 CALM      29.96S

CITY           SKY/WX    TMP DP  RH WIND       PRES   REMARKS
AVALON           N/A     59 N/A N/A MISG        N/A
FULLERTON      CLEAR     64  59  83 CALM      29.95S
*GETTY CENTER    N/A     61  57  88 NE6         N/A
HAWTHORNE      CLEAR     67  63  87 CALM      29.96F
*LEO CARRILLO    N/A     62  56  80 N6          N/A
*LOS ALAMITOS  FAIR      61  60  97 CALM      29.96S
*REDONDO BEACH   N/A     64  61  88 CALM      29.95S
SANTA ANA      CLEAR     70  61  73 CALM      29.95F
STA MONICA APT PTCLDY    64  60  87 CALM      29.97R
*UCLA            N/A     63  59  88 N3        29.94S

$$

CAZ547-548-048-221100-
LA COUNTY VALLEYS AND INLAND EMPIRE


CITY           SKY/WX    TMP DP  RH WIND       PRES   REMARKS
BURBANK        CLEAR     64  58  80 CALM      29.97S
VAN NUYS       CLEAR     64  58  80 CALM      29.97S

CITY           SKY/WX    TMP DP  RH WIND       PRES   REMARKS
CORONA AIRPORT SUNNY     57  54  90 CALM      29.97F
*CHATSWORTH      N/A     62  56  79 CALM      29.94S
CHINO          CLEAR     60  57  89 N3        29.98F FOG
MARCH AFB      CLEAR     60  55  86 W1        29.99F
*NORTHRIDGE      N/A     63  55  77 NE1         N/A
ONTARIO        CLEAR     65  58  78 CALM      29.97F
*PASADENA        N/A     63  59  88 CALM        N/A
RIVERSIDE      CLEAR     63  58  83 CALM      29.97F
SAN BERNARDINO NOT AVBL
*SAN GABRIEL     N/A     63  58  82 CALM      29.93S
*SAN RAFAEL HI   N/A     62  55  79 SW3         N/A
*SAUGUS          N/A     60  55  82 E5          N/A
*WHITEMAN AP   NOT AVBL
*WOODLAND HILL   N/A     59  55  88 S2          N/A

$$

CAZ054-055-221100-
LA AND SAN BERNARDINO COUNTY MOUNTAINS


CITY           SKY/WX    TMP DP  RH WIND       PRES   REMARKS
*BIG BEAR AIRP SUNNY     39  32  75 CALM      30.27F
*CHILAO          N/A     63  24  22 CALM        N/A
MT WILSON NWS    N/A     61  23  23 E7          N/A
SANDBERG       CLEAR     64  47  53 NW15      30.13S
*WARM SPRINGS    N/A     66  47  50 W5          N/A

$$

CAZ028-029-059-060-099-221100-
ANTELOPE VALLEY AND SURROUNDING AREAS


CITY           SKY/WX    TMP DP  RH WIND       PRES   REMARKS
LANCASTER      CLEAR     59  42  53 CALM      30.02R
PALMDALE       CLEAR     62  37  39 S6        30.03R
*POPPY PARK      N/A     70  47  44 W7G20       N/A

CITY           SKY/WX    TMP DP  RH WIND       PRES   REMARKS
29 PALMS       CLEAR     72  42  34 W6        30.05S
BARSTOW/DAGGET CLEAR     72  44  36 W9        29.98S
BISHOP         CLEAR     58  45  62 CALM      30.10R
CHINA LAKE     CLEAR     67  45  45 S3        29.98R
EDWARDS AFB    CLEAR     63  45  51 SW3       30.00R
MOJAVE         FAIR      68  46  45 CALM      30.03R
NEEDLES        CLEAR     79  46  31 N3        29.89F
VICTORVILLE    CLEAR     64  46  52 SE8       30.04F

$$

CAZ039-040-221100-
VENTURA AND SANTA BARBARA COUNTY COAST


CITY           SKY/WX    TMP DP  RH WIND       PRES   REMARKS
CAMARILLO      CLEAR     64  56  75 NE3       29.95S
NWS OXNARD       N/A     59  55  85 CALM      29.95S
OXNARD AIRPORT CLEAR     59  56  89 E3        29.95S
*POINT MUGU    CLEAR     63  58  83 NE5       29.95F
SBA APT/GOLETA CLEAR     60  56  86 N3        29.94S
*VENTURA         N/A     60  57  89 CALM      30.02R

$$

CAZ044-045-221100-
VENTURA COUNTY VALLEYS


CITY           SKY/WX    TMP DP  RH WIND       PRES   REMARKS
*SIMI VALLEY     N/A     58  55  90 CALM      29.92S
*OJAI            N/A     54  51  90 CALM      29.90S
*FILLMORE        N/A     57  53  86 CALM      29.86F

$$

CAZ053-221100-
VENTURA COUNTY MOUNTAINS


CITY           SKY/WX    TMP DP  RH WIND       PRES   REMARKS
*LOCKWOOD VLY    N/A     45  37  76 CALM        N/A
*ROSE VALLEY     N/A     46  45  93 MISG        N/A

$$

CAZ034-035-036-221100-
CENTRAL COAST AND SANTA YNEZ VALLEY


CITY           SKY/WX    TMP DP  RH WIND       PRES   REMARKS
SAN LUIS OBISP CLEAR     59  57  93 NW5       29.97F
SANTA MARIA    CLEAR     61  56  83 S3        29.98F

CITY           SKY/WX    TMP DP  RH WIND       PRES   REMARKS
*CAL POLY SLO    N/A     57  57 100 CALM        N/A
*LOMPOC        CLOUDY    63  55  77 CALM      29.99F
*PISMO BEACH     N/A     60  57  89 NE3       29.98F
*SANTA YNEZ    CLOUDY    61  55  82 CALM      29.99S

$$

CAZ037-038-051-221100-
SAN LUIS OBISPO COUNTY INTERIOR AND CUYAMA VALLEY


CITY           SKY/WX    TMP DP  RH WIND       PRES   REMARKS
*CUYAMA          N/A     59  50  72 NE2       29.94F
PASO ROBLES    CLEAR     60  56  86 NW6       30.01S

$$

CAZ032-033-061-221100-
SOUTHERN DESERTS


CITY           SKY/WX    TMP DP  RH WIND       PRES   REMARKS
BLYTHE         CLEAR     81  49  32 SW3       29.86S
IMPERIAL       CLEAR     77  51  40 CALM      29.83S
PALM SPRINGS   CLEAR     79  55  43 CALM      29.89F
THERMAL        CLEAR     77  55  46 N7        29.83S

$$

ELSEWHERE ACROSS THE WESTERN UNITED STATES AND MEXICO


CITY           SKY/WX    TMP DP  RH WIND       PRES   REMARKS
DENVER, CO     CLOUDY    60  46  59 S15       30.21F
GRAND CANYON,  CLEAR     42  40  92 CALM      30.30S
HONOLULU, HI   PTCLDY    81  68  65 NE8       30.01F
KAHULUI, MAUI  CLEAR     75  70  83 SE6       30.02S
LAKE TAHOE, CA CLEAR     42  36  79 SW3       30.24S
LAS VEGAS, NV  CLEAR     78  46  32 SW7       29.94S
MAMMOTH LAKES, FAIR      43  36  75 N3        30.29S
MEXICO CITY, M MOCLDY    61  54  77 CALM      30.31S
PHOENIX, AZ    CLEAR     83  55  38 SW6       29.90F
PORTLAND, OR   MOCLDY    62  55  77 S10       29.99R
RENO, NV       CLEAR     57  44  62 CALM      30.14S
SALT LAKE CITY CLOUDY    63  57  81 SE6       30.13S
SAN DIEGO, CA  PTCLDY    68  62  81 N3        29.96F
SAN FRANCISCO, CLOUDY    66  60  81 W7        30.01S
SAN JOSE, CA   CLOUDY    64  58  80 NW5       30.00F
SEATTLE, WA    MOCLDY    62  56  80 S5        29.97S
TIJUANA, MEX   CLEAR     64  57  77 NW5       29.98F

$$

STATION/POSITION TIME  TEMP    WIND        PRES    VSBY  WAVE
                       AIR SEA DIR/SP/G                  HT/PER
                 (UTC) (F)     (DEG/KT/KT) (MB)    (MI)  (FT/S)
POINT ARGUELLO B NOT AVBL
WEST SANTA BARBA 1000   64 64  330/ 17/ 21 1013.6F         5/12
POINT CONCEPTION NOT AVBL
EAST SANTA BARBA 0800   66 66   50/  4     1014.0R
SANTA MONICA BAY 1000   68 72  360/  6/  6 1014.1R         3/15


USA.gov is the U.S. government's official web portal to all federal, state and local government web resources and services.